Location: *
(37.5724°S, 58.0067°E)
Time: 10:50:13
(UTC+00:00)

H-2A R/B - Pass Details

Date: 26 September 2020
Orbit: 734 x 836 km, 98.2° (Epoch: 29 October)

Event Time Altitude Azimuth Distance (km) Brightness Sun altitude
Rises 16:19:34 0° 171° (S) 3,226 5.4 -26.0°
Reaches altitude 10° 16:21:54 10° 173° (S) 2,286 4.6 -26.4°
Maximum altitude 16:26:53 68° 255° (WSW) 802 2.2 -27.3°
Enters shadow 16:28:41 38° 324° (NW) 1,113 2.8 -27.6°
